星链-1392 (STARLINK-1392 )

导读

STARLINK-1392是美国SpaceX公司星链(Starlink)卫星互联网项目中的一颗卫星,于2020年6月4日发射升空,属于星链星座的早期组网卫星,旨在为全球提供低延迟、高速率的宽带互联网服务,依托近地轨道部署,助力星链完成全球覆盖的组网目标。

Basic Information
目录编号:
45677
目录名称:
STARLINK-1392
国际标识:
2020-035W
轨道中心:
EARTH
卫星名称:
星链-1392
卫星全名:
星链-1392 (STARLINK-1392 )
卫星状态:
在轨 (已飞行2284 天)
发射日期:
2020-06-04 UTC
国别 :
美国 (US)
星等 :
--
Orbit Information
数据来源 国际轨道数据
星历时间: 2026-09-04T02:37:05+0800
1天前
查看轨道信息
半长轴: 6806.001km
偏心率: 0.000052
轨道倾角: 53.150°
近地点辐角 5.518°
升交点赤经 307.561°
平近点角 354.584°
近地点: 427.51km
远地点: 428.218km
周期: 93.132分钟
每日圈数: 15.461969
Detailed Information
固有亮度:
5
最大亮度:
2.5
卫星平台:
Starlink V1.0
覆盖范围:
全球
运营商:
太空探索技术公司
运营商所在国:
美国
制造商(研发单位):
太空探索技术公司
制造商所在国:
美国
使用方式:
暂无
Satellite Introduction
星链(Starlink)计划是由太空探索技术公司(SpaceX)提出的一个巨型低轨卫星互联网星座项目,计划在2019年至2024年间在太空搭建由约1.2万颗卫星组成的“星链”网络,其中1584颗将部署在地球上空550千米处的近地轨道,并从2020年开始工作。该卫星仍在工作。
2D Orbit Map
3D Orbit Map
Orbit Altitude Analysis Chart
Orbit Inclination Analysis Chart
Orbit Comprehensive Analysis Chart
View Comprehensive Chart
Conjunction Data List
Event ID Objects TCA Miss Dist (km) Collision Risk Probability Collision Risk Index (CRI) Action
CDM_260905-130204-070104-567724
GAOFEN 8 (40701)
2026-09-05T
13:02:54+0000
1.818 km
极远距离
3.62605E-6 低风险 0.46
CDM_260906-090804-541204-567721
2026-09-06T
09:08:40+0000
2.592 km
极远距离
1.025253E-6 低风险 0.35